| time (UTC) | temp F | wind direction | speed MPH | gust MPH | rain 1hr in | rain 24hr in | rain mn in | humidity % | barometer mb |
| 20260502160204 | 69 | 58 | 3.0 | 7.0 | 0.00 | 0.29 | 0.00 | 52 | 1020.5 |
| 20260502152204 | 66 | 334 | 4.0 | 7.0 | 0.00 | 0.40 | 0.00 | 57 | 1020.3 |
| 20260502151704 | 66 | 328 | 3.0 | 9.0 | 0.00 | 0.41 | 0.00 | 60 | 1020.2 |
| 20260502151204 | 66 | 8 | 5.0 | 9.0 | 0.00 | 0.42 | 0.00 | 59 | 1020.2 |
| 20260502150704 | 65 | 5 | 4.0 | 10.0 | 0.00 | 0.43 | 0.00 | 62 | 1020.1 |
| 20260502150203 | 65 | 17 | 4.0 | 8.0 | 0.00 | 0.44 | 0.00 | 66 | 1020.1 |
| 20260502130204 | 56 | 346 | 2.0 | 7.0 | 0.00 | 0.61 | 0.00 | 92 | 1019.4 |
| 20260502123704 | 55 | 14 | 1.0 | 3.0 | 0.00 | 0.66 | 0.00 | 95 | 1018.6 |
| 20260502123204 | 54 | 5 | 1.0 | 2.0 | 0.00 | 0.67 | 0.00 | 96 | 1018.6 |
| 20260502122704 | 54 | 323 | 2.0 | 3.0 | 0.00 | 0.68 | 0.00 | 95 | 1018.5 |
| 20260502122204 | 54 | 324 | 1.0 | 2.0 | 0.00 | 0.69 | 0.00 | 95 | 1018.4 |
| 20260502121704 | 54 | 324 | 0.0 | 1.0 | 0.00 | 0.69 | 0.00 | 95 | 1018.3 |
| 20260502121204 | 54 | 324 | 0.0 | 0.0 | 0.00 | 0.69 | 0.00 | 95 | 1018.3 |
| 20260502120704 | 54 | 324 | 0.0 | 0.0 | 0.00 | 0.70 | 0.00 | 95 | 1018.2 |
| 20260502120203 | 54 | 324 | 0.0 | 0.0 | 0.00 | 0.70 | 0.00 | 95 | 1018.1 |
| 20260502115704 | 54 | 324 | 0.0 | 0.0 | 0.00 | 0.70 | 0.00 | 95 | 1018.0 |
| 20260502115203 | 54 | 324 | 0.0 | 0.0 | 0.00 | 0.70 | 0.00 | 94 | 1017.9 |
| 20260502114703 | 54 | 324 | 0.0 | 0.0 | 0.00 | 0.70 | 0.00 | 94 | 1017.8 |
| 20260502114203 | 54 | 324 | 0.0 | 0.0 | 0.00 | 0.70 | 0.00 | 94 | 1017.7 |
| 20260502113704 | 54 | 324 | 0.0 | 0.0 | 0.00 | 0.70 | 0.00 | 94 | 1017.6 |
| 20260502113204 | 54 | 324 | 0.0 | 1.0 | 0.00 | 0.70 | 0.00 | 94 | 1017.6 |
| 20260502112704 | 54 | 324 | 0.0 | 1.0 | 0.00 | 0.70 | 0.00 | 94 | 1017.5 |
| 20260502112204 | 54 | 324 | 0.0 | 0.0 | 0.00 | 0.70 | 0.00 | 94 | 1017.5 |
| 20260502111704 | 54 | 324 | 0.0 | 1.0 | 0.00 | 0.70 | 0.00 | 93 | 1017.4 |
| 20260502111204 | 54 | 324 | 0.0 | 1.0 | 0.00 | 0.70 | 0.00 | 93 | 1017.3 |
| 20260502110705 | 54 | 324 | 0.0 | 1.0 | 0.00 | 0.70 | 0.00 | 93 | 1017.3 |
| 20260502110204 | 54 | 324 | 0.0 | 1.0 | 0.00 | 0.70 | 0.00 | 93 | 1017.2 |
| 20260502105703 | 54 | 324 | 1.0 | 2.0 | 0.00 | 0.70 | 0.00 | 93 | 1017.0 |
| 20260502105203 | 55 | 324 | 0.0 | 0.0 | 0.00 | 0.70 | 0.00 | 93 | 1016.9 |
| 20260502104204 | 55 | 324 | 0.0 | 1.0 | 0.00 | 0.70 | 0.00 | 93 | 1016.8 |
| 20260502102704 | 55 | 324 | 1.0 | 2.0 | 0.00 | 0.70 | 0.00 | 93 | 1016.6 |
| 20260502101204 | 55 | 324 | 0.0 | 1.0 | 0.00 | 0.70 | 0.00 | 93 | 1016.6 |
| 20260502100704 | 55 | 321 | 0.0 | 2.0 | 0.00 | 0.70 | 0.00 | 93 | 1016.5 |
| 20260502100203 | 55 | 319 | 0.0 | 1.0 | 0.00 | 0.70 | 0.00 | 93 | 1016.5 |
| 20260502091204 | 56 | 355 | 1.0 | 2.0 | 0.00 | 0.70 | 0.00 | 93 | 1016.1 |
| 20260502090205 | 56 | 347 | 1.0 | 2.0 | 0.00 | 0.70 | 0.00 | 93 | 1016.3 |
| 20260502071204 | 56 | 331 | 1.0 | 2.0 | 0.00 | 0.70 | 0.00 | 94 | 1016.4 |
| 20260502070704 | 55 | 332 | 1.0 | 3.0 | 0.00 | 0.70 | 0.00 | 94 | 1016.4 |
| 20260502070204 | 55 | 345 | 1.0 | 2.0 | 0.00 | 0.70 | 0.00 | 94 | 1016.3 |
| 20260502065703 | 56 | 345 | 0.0 | 2.0 | 0.00 | 0.70 | 0.00 | 94 | 1016.2 |
| 20260502064704 | 56 | 5 | 0.0 | 3.0 | 0.00 | 0.70 | 0.00 | 94 | 1016.3 |
| 20260502064204 | 56 | 342 | 0.0 | 1.0 | 0.00 | 0.70 | 0.00 | 94 | 1016.4 |
| 20260502063704 | 56 | 342 | 1.0 | 2.0 | 0.00 | 0.70 | 0.00 | 94 | 1016.5 |
| 20260502063204 | 56 | 342 | 0.0 | 1.0 | 0.00 | 0.70 | 0.00 | 94 | 1016.6 |
| 20260502062704 | 56 | 342 | 0.0 | 1.0 | 0.00 | 0.70 | 0.00 | 94 | 1016.6 |
| 20260502061704 | 56 | 342 | 0.0 | 1.0 | 0.00 | 0.70 | 0.00 | 94 | 1016.6 |
| 20260502061203 | 56 | 331 | 1.0 | 2.0 | 0.00 | 0.70 | 0.00 | 94 | 1016.6 |
| 20260502060703 | 56 | 5 | 0.0 | 1.0 | 0.00 | 0.70 | 0.00 | 94 | 1016.6 |
| 20260502060204 | 56 | 5 | 0.0 | 1.0 | 0.00 | 0.70 | 0.00 | 94 | 1016.6 |
| 20260502054704 | 56 | 329 | 0.0 | 3.0 | 0.00 | 0.70 | 0.00 | 94 | 1016.6 |
| 20260502054204 | 56 | 333 | 1.0 | 2.0 | 0.00 | 0.70 | 0.00 | 95 | 1016.6 |
| 20260502053703 | 56 | 333 | 1.0 | 2.0 | 0.00 | 0.70 | 0.00 | 95 | 1016.6 |
| 20260502053204 | 56 | 355 | 0.0 | 2.0 | 0.00 | 0.70 | 0.00 | 95 | 1016.6 |
| 20260502052704 | 56 | 355 | 0.0 | 1.0 | 0.00 | 0.70 | 0.00 | 95 | 1016.5 |
| 20260502052204 | 56 | 355 | 0.0 | 1.0 | 0.00 | 0.70 | 0.00 | 95 | 1016.6 |
| 20260502051703 | 56 | 355 | 0.0 | 1.0 | 0.00 | 0.70 | 0.00 | 95 | 1016.6 |
| 20260502051204 | 56 | 355 | 0.0 | 0.0 | 0.00 | 0.70 | 0.00 | 95 | 1016.5 |
| 20260502050704 | 56 | 355 | 0.0 | 1.0 | 0.00 | 0.70 | 0.00 | 95 | 1016.4 |
| 20260502050204 | 56 | 355 | 0.0 | 2.0 | 0.00 | 0.70 | 0.00 | 95 | 1016.4 |
| 20260502045204 | 56 | 1 | 0.0 | 2.0 | 0.00 | 0.70 | 0.70 | 95 | 1016.0 |
| 20260502044703 | 56 | 0 | 1.0 | 3.0 | 0.00 | 0.70 | 0.70 | 95 | 1015.9 |
| 20260502044204 | 56 | 331 | 1.0 | 2.0 | 0.01 | 0.70 | 0.70 | 95 | 1015.9 |
| 20260502043204 | 56 | 286 | 1.0 | 2.0 | 0.01 | 0.70 | 0.70 | 95 | 1015.8 |
| 20260502042704 | 56 | 286 | 0.0 | 1.0 | 0.01 | 0.70 | 0.70 | 95 | 1015.9 |
| 20260502041703 | 56 | 212 | 0.0 | 1.0 | 0.01 | 0.70 | 0.70 | 95 | 1016.1 |
| 20260502041204 | 56 | 211 | 1.0 | 2.0 | 0.01 | 0.70 | 0.70 | 95 | 1016.1 |
| 20260502040205 | 56 | 292 | 1.0 | 2.0 | 0.01 | 0.70 | 0.70 | 95 | 1016.4 |
| 20260502035704 | 56 | 331 | 1.0 | 3.0 | 0.01 | 0.70 | 0.70 | 95 | 1016.3 |
| 20260502035204 | 56 | 139 | 0.0 | 1.0 | 0.01 | 0.70 | 0.70 | 95 | 1016.1 |
| 20260502034703 | 56 | 139 | 0.0 | 2.0 | 0.01 | 0.70 | 0.70 | 94 | 1016.2 |
| 20260502034204 | 56 | 191 | 2.0 | 3.0 | 0.00 | 0.69 | 0.69 | 95 | 1016.2 |
| 20260502033704 | 56 | 139 | 2.0 | 5.0 | 0.00 | 0.69 | 0.69 | 94 | 1016.0 |
| 20260502032704 | 56 | 296 | 0.0 | 0.0 | 0.00 | 0.69 | 0.69 | 94 | 1016.1 |
| 20260502032204 | 56 | 296 | 0.0 | 0.0 | 0.00 | 0.69 | 0.69 | 94 | 1016.3 |
| 20260502031704 | 56 | 296 | 1.0 | 2.0 | 0.00 | 0.69 | 0.69 | 94 | 1016.3 |
| 20260502031204 | 56 | 321 | 1.0 | 1.0 | 0.00 | 0.69 | 0.69 | 94 | 1016.0 |
| 20260502030703 | 56 | 253 | 0.0 | 0.0 | 0.00 | 0.69 | 0.69 | 94 | 1016.1 |
| 20260502030204 | 56 | 253 | 0.0 | 0.0 | 0.00 | 0.69 | 0.69 | 94 | 1016.3 |
| 20260502025704 | 56 | 253 | 0.0 | 0.0 | 0.00 | 0.69 | 0.69 | 94 | 1016.1 |
| 20260502025204 | 56 | 253 | 0.0 | 0.0 | 0.00 | 0.69 | 0.69 | 94 | 1015.9 |
| 20260502024704 | 56 | 253 | 0.0 | 0.0 | 0.00 | 0.69 | 0.69 | 94 | 1016.1 |
| 20260502024204 | 56 | 253 | 0.0 | 1.0 | 0.00 | 0.69 | 0.69 | 94 | 1016.2 |
| 20260502023704 | 56 | 253 | 1.0 | 2.0 | 0.01 | 0.69 | 0.69 | 94 | 1016.3 |
| 20260502023204 | 56 | 253 | 0.0 | 1.0 | 0.01 | 0.69 | 0.69 | 93 | 1016.4 |
| 20260502022703 | 56 | 253 | 1.0 | 2.0 | 0.01 | 0.69 | 0.69 | 93 | 1016.2 |
| 20260502021704 | 56 | 294 | 0.0 | 0.0 | 0.01 | 0.69 | 0.69 | 93 | 1015.9 |
| 20260502021204 | 56 | 294 | 0.0 | 2.0 | 0.02 | 0.69 | 0.69 | 93 | 1015.9 |
| 20260502020704 | 57 | 294 | 0.0 | 1.0 | 0.02 | 0.69 | 0.69 | 92 | 1015.9 |
| 20260502020204 | 57 | 294 | 0.0 | 3.0 | 0.02 | 0.69 | 0.69 | 92 | 1016.0 |
| 20260502015703 | 57 | 355 | 0.0 | 1.0 | 0.02 | 0.69 | 0.69 | 92 | 1015.7 |
| 20260502014704 | 57 | 355 | 0.0 | 2.0 | 0.02 | 0.69 | 0.69 | 92 | 1015.5 |
| 20260502014205 | 57 | 355 | 0.0 | 1.0 | 0.02 | 0.69 | 0.69 | 92 | 1015.5 |
| 20260502013704 | 57 | 355 | 1.0 | 2.0 | 0.01 | 0.68 | 0.68 | 92 | 1015.4 |
| 20260502012204 | 57 | 358 | 3.0 | 6.0 | 0.01 | 0.68 | 0.68 | 91 | 1014.6 |
| 20260502011704 | 57 | 351 | 2.0 | 5.0 | 0.01 | 0.68 | 0.68 | 91 | 1014.8 |
| 20260502011204 | 57 | 356 | 2.0 | 5.0 | 0.00 | 0.67 | 0.67 | 91 | 1014.5 |
| 20260502010704 | 57 | 13 | 2.0 | 3.0 | 0.00 | 0.68 | 0.67 | 91 | 1014.6 |
| 20260502005204 | 57 | 5 | 1.0 | 3.0 | 0.00 | 0.68 | 0.67 | 91 | 1014.8 |
| 20260502004704 | 57 | 5 | 1.0 | 3.0 | 0.00 | 0.68 | 0.67 | 91 | 1014.9 |
| 20260502004204 | 57 | 5 | 2.0 | 3.0 | 0.00 | 0.68 | 0.67 | 91 | 1014.9 |
| 20260502003704 | 57 | 5 | 2.0 | 3.0 | 0.00 | 0.68 | 0.67 | 90 | 1014.7 |
| 20260502003204 | 57 | 5 | 1.0 | 2.0 | 0.01 | 0.68 | 0.67 | 90 | 1014.5 |
| 20260502002704 | 57 | 5 | 1.0 | 3.0 | 0.01 | 0.68 | 0.67 | 90 | 1014.6 |
| 20260502001703 | 58 | 19 | 0.0 | 2.0 | 0.01 | 0.68 | 0.67 | 89 | 1014.8 |
| 20260502001204 | 58 | 19 | 1.0 | 2.0 | 0.01 | 0.68 | 0.67 | 90 | 1014.7 |
| 20260502000703 | 58 | 19 | 1.0 | 2.0 | 0.01 | 0.68 | 0.67 | 90 | 1014.5 |
| 20260502000204 | 58 | 19 | 1.0 | 6.0 | 0.01 | 0.68 | 0.67 | 90 | 1014.6 |
| 20260501235704 | 58 | 6 | 1.0 | 3.0 | 0.01 | 0.68 | 0.67 | 90 | 1014.4 |
| 20260501235204 | 58 | 325 | 1.0 | 5.0 | 0.01 | 0.68 | 0.67 | 90 | 1014.6 |
| 20260501234704 | 58 | 9 | 1.0 | 3.0 | 0.01 | 0.68 | 0.67 | 90 | 1014.4 |
| 20260501234204 | 58 | 28 | 1.0 | 3.0 | 0.01 | 0.68 | 0.67 | 89 | 1014.4 |
| 20260501233703 | 58 | 34 | 1.0 | 5.0 | 0.01 | 0.68 | 0.67 | 88 | 1014.5 |
| 20260501233206 | 58 | 46 | 1.0 | 6.0 | 0.00 | 0.67 | 0.66 | 87 | 1014.5 |
| 20260501232704 | 58 | 54 | 1.0 | 3.0 | 0.00 | 0.67 | 0.66 | 88 | 1014.3 |
| 20260501232204 | 58 | 47 | 2.0 | 3.0 | 0.00 | 0.68 | 0.66 | 88 | 1014.5 |
| 20260501231704 | 58 | 17 | 2.0 | 3.0 | 0.00 | 0.68 | 0.66 | 87 | 1014.4 |
| 20260501231205 | 58 | 353 | 3.0 | 5.0 | 0.00 | 0.68 | 0.66 | 87 | 1014.4 |
| 20260501230204 | 58 | 28 | 0.0 | 0.0 | 0.00 | 0.68 | 0.66 | 86 | 1014.5 |
| 20260501225204 | 58 | 28 | 0.0 | 3.0 | 0.00 | 0.69 | 0.66 | 85 | 1014.8 |
| 20260501224704 | 58 | 10 | 1.0 | 3.0 | 0.00 | 0.69 | 0.66 | 86 | 1014.8 |
| 20260501224204 | 58 | 44 | 2.0 | 3.0 | 0.00 | 0.70 | 0.66 | 85 | 1014.6 |
| 20260501223704 | 58 | 347 | 0.0 | 3.0 | 0.00 | 0.70 | 0.66 | 85 | 1014.4 |
| 20260501223204 | 58 | 55 | 2.0 | 5.0 | 0.00 | 0.70 | 0.66 | 84 | 1014.2 |
| 20260501222204 | 58 | 64 | 2.0 | 3.0 | 0.00 | 0.70 | 0.66 | 85 | 1013.8 |
| 20260501221704 | 58 | 14 | 2.0 | 6.0 | 0.00 | 0.71 | 0.66 | 85 | 1013.8 |
| 20260501221204 | 58 | 35 | 1.0 | 3.0 | 0.00 | 0.71 | 0.66 | 85 | 1013.8 |
| 20260501215703 | 58 | 356 | 3.0 | 6.0 | 0.00 | 0.72 | 0.66 | 84 | 1013.8 |
| 20260501215204 | 58 | 29 | 2.0 | 5.0 | 0.00 | 0.72 | 0.66 | 85 | 1013.8 |
| 20260501214205 | 57 | 2 | 3.0 | 5.0 | 0.00 | 0.72 | 0.66 | 84 | 1013.8 |
| 20260501213704 | 57 | 1 | 2.0 | 6.0 | 0.00 | 0.73 | 0.66 | 84 | 1013.7 |
| 20260501213204 | 57 | 13 | 3.0 | 8.0 | 0.00 | 0.73 | 0.66 | 84 | 1013.6 |
| 20260501212704 | 57 | 3 | 2.0 | 6.0 | 0.00 | 0.73 | 0.66 | 84 | 1013.8 |
| 20260501212204 | 57 | 5 | 2.0 | 3.0 | 0.00 | 0.73 | 0.66 | 85 | 1013.9 |
| 20260501211704 | 57 | 40 | 1.0 | 2.0 | 0.00 | 0.73 | 0.66 | 84 | 1013.8 |
| 20260501211203 | 57 | 52 | 2.0 | 7.0 | 0.00 | 0.73 | 0.66 | 84 | 1013.8 |
| 20260501210704 | 57 | 71 | 3.0 | 9.0 | 0.00 | 0.74 | 0.66 | 87 | 1013.8 |
| 20260501205704 | 57 | 70 | 1.0 | 7.0 | 0.00 | 0.75 | 0.66 | 87 | 1013.3 |
| 20260501205204 | 57 | 69 | 3.0 | 8.0 | 0.00 | 0.77 | 0.66 | 86 | 1013.0 |
| 20260501204704 | 57 | 17 | 2.0 | 6.0 | 0.00 | 0.77 | 0.66 | 87 | 1012.7 |
| 20260501204204 | 57 | 50 | 5.0 | 12.0 | 0.00 | 0.78 | 0.66 | 86 | 1012.3 |
| 20260501203704 | 57 | 54 | 3.0 | 5.0 | 0.00 | 0.78 | 0.66 | 89 | 1012.3 |
| 20260501203204 | 57 | 36 | 3.0 | 8.0 | 0.01 | 0.78 | 0.66 | 89 | 1012.5 |
| 20260501202703 | 57 | 45 | 6.0 | 10.0 | 0.01 | 0.78 | 0.66 | 88 | 1012.4 |
| 20260501202203 | 57 | 69 | 5.0 | 14.0 | 0.01 | 0.78 | 0.66 | 89 | 1012.3 |
| 20260501201703 | 57 | 47 | 6.0 | 12.0 | 0.01 | 0.78 | 0.66 | 91 | 1012.2 |
| 20260501201204 | 57 | 63 | 5.0 | 20.0 | 0.02 | 0.78 | 0.66 | 91 | 1012.1 |
| 20260501200704 | 57 | 7 | 5.0 | 12.0 | 0.02 | 0.78 | 0.66 | 92 | 1012.2 |
| 20260501200204 | 56 | 341 | 5.0 | 12.0 | 0.02 | 0.78 | 0.66 | 92 | 1012.3 |
| 20260501194704 | 56 | 35 | 5.0 | 16.0 | 0.03 | 0.80 | 0.66 | 92 | 1012.1 |
| 20260501194204 | 56 | 41 | 4.0 | 15.0 | 0.03 | 0.81 | 0.66 | 92 | 1012.6 |
| 20260501193704 | 56 | 48 | 5.0 | 6.0 | 0.04 | 0.84 | 0.66 | 93 | 1012.9 |
| 20260501193204 | 56 | 25 | 5.0 | 12.0 | 0.03 | 0.85 | 0.65 | 93 | 1013.3 |
| 20260501192704 | 56 | 52 | 2.0 | 8.0 | 0.03 | 0.85 | 0.65 | 93 | 1013.6 |
| 20260501192204 | 56 | 24 | 3.0 | 6.0 | 0.03 | 0.85 | 0.65 | 93 | 1013.9 |
| 20260501191703 | 56 | 43 | 2.0 | 6.0 | 0.03 | 0.85 | 0.65 | 93 | 1014.3 |
| 20260501191204 | 56 | 43 | 3.0 | 8.0 | 0.02 | 0.84 | 0.64 | 93 | 1014.4 |
| 20260501190704 | 56 | 15 | 3.0 | 9.0 | 0.03 | 0.84 | 0.64 | 93 | 1014.5 |
| 20260501190204 | 56 | 18 | 3.0 | 7.0 | 0.03 | 0.84 | 0.64 | 93 | 1014.5 |
| 20260501185704 | 56 | 354 | 2.0 | 6.0 | 0.02 | 0.83 | 0.63 | 93 | 1014.6 |
| 20260501185204 | 56 | 5 | 5.0 | 8.0 | 0.02 | 0.83 | 0.63 | 93 | 1014.6 |
| 20260501184204 | 56 | 25 | 3.0 | 7.0 | 0.03 | 0.83 | 0.63 | 94 | 1014.4 |
| 20260501183704 | 56 | 46 | 5.0 | 7.0 | 0.02 | 0.82 | 0.62 | 94 | 1014.5 |
| 20260501182704 | 56 | 76 | 3.0 | 6.0 | 0.03 | 0.82 | 0.62 | 94 | 1014.9 |
| 20260501182204 | 56 | 49 | 3.0 | 7.0 | 0.03 | 0.82 | 0.62 | 94 | 1015.1 |
| 20260501181704 | 56 | 26 | 2.0 | 5.0 | 0.04 | 0.82 | 0.62 | 94 | 1015.4 |
| 20260501181204 | 56 | 27 | 3.0 | 5.0 | 0.05 | 0.82 | 0.62 | 94 | 1015.5 |
| 20260501180704 | 56 | 54 | 2.0 | 5.0 | 0.05 | 0.81 | 0.61 | 94 | 1015.6 |
| 20260501180204 | 55 | 17 | 3.0 | 7.0 | 0.06 | 0.81 | 0.61 | 94 | 1015.5 |
| 20260501175704 | 56 | 7 | 3.0 | 10.0 | 0.06 | 0.81 | 0.61 | 94 | 1015.6 |
| 20260501174704 | 55 | 37 | 1.0 | 5.0 | 0.08 | 0.81 | 0.61 | 94 | 1015.8 |
| 20260501173704 | 55 | 53 | 3.0 | 7.0 | 0.08 | 0.80 | 0.60 | 94 | 1015.9 |
| 20260501173204 | 55 | 46 | 2.0 | 6.0 | 0.09 | 0.80 | 0.60 | 95 | 1016.0 |
| 20260501171705 | 55 | 18 | 1.0 | 5.0 | 0.11 | 0.78 | 0.58 | 95 | 1016.2 |
| 20260501170704 | 55 | 35 | 2.0 | 5.0 | 0.12 | 0.76 | 0.56 | 95 | 1016.5 |
| 20260501170204 | 55 | 48 | 2.0 | 6.0 | 0.12 | 0.75 | 0.55 | 95 | 1016.5 |
| 20260501165704 | 55 | 28 | 3.0 | 6.0 | 0.14 | 0.75 | 0.55 | 95 | 1016.6 |
| 20260501165204 | 55 | 347 | 3.0 | 5.0 | 0.14 | 0.74 | 0.54 | 95 | 1016.7 |
| 20260501164704 | 55 | 22 | 3.0 | 3.0 | 0.14 | 0.73 | 0.53 | 95 | 1016.9 |
| 20260501164204 | 55 | 357 | 1.0 | 3.0 | 0.15 | 0.73 | 0.53 | 95 | 1017.0 |
| 20260501162704 | 55 | 346 | 2.0 | 6.0 | 0.18 | 0.70 | 0.50 | 95 | 1016.8 |
| 20260501161704 | 55 | 13 | 2.0 | 6.0 | 0.17 | 0.67 | 0.47 | 95 | 1017.0 |
| 20260501161204 | 55 | 17 | 2.0 | 3.0 | 0.16 | 0.65 | 0.45 | 95 | 1017.0 |
| 20260501160705 | 55 | 53 | 1.0 | 2.0 | 0.16 | 0.64 | 0.44 | 94 | 1017.1 |